This is the latest recevied weather packets stored in our database for station/object K1AWR. If no packets are shown the sender has not sent any weather packets the latest 10 day(s).
| Time | Temp. | Humidity | Pressure | Rain* | Wind** | Luminosity | Snow |
|---|---|---|---|---|---|---|---|
| 1777511265 | 13.33° C | 65% | 1011.2 hPa | 0 mm | - | 0 W/m² | - |
| 1777510959 | 12.78° C | 66% | 1011.3 hPa | 0 mm | - | 0 W/m² | - |
| 1777510657 | 13.33° C | 65% | 1011.1 hPa | 0 mm | - | 0 W/m² | - |
| 1777510352 | 13.33° C | 65% | 1011.3 hPa | 0 mm | - | 0 W/m² | - |
| 1777510049 | 13.89° C | 64% | 1011 hPa | 0 mm | - | 0 W/m² | - |
| 1777509746 | 13.89° C | 63% | 1011.1 hPa | 0 mm | - | 0 W/m² | - |
| 1777509441 | 13.89° C | 63% | 1011 hPa | 0 mm | - | 0 W/m² | - |
| 1777509140 | 13.89° C | 63% | 1011 hPa | 0 mm | - | 0 W/m² | - |
| 1777508836 | 14.44° C | 62% | 1011.2 hPa | 0 mm | - | 0 W/m² | - |
| 1777508533 | 14.44° C | 62% | 1010.9 hPa | 0 mm | - | 0 W/m² | - |
| 1777508230 | 13.89° C | 64% | 1011.2 hPa | 0 mm | - | 0 W/m² | - |
| 1777507928 | 13.89° C | 63% | 1011.2 hPa | 0 mm | - | 0 W/m² | - |
| 1777507624 | 14.44° C | 64% | 1011.2 hPa | 0 mm | - | 0 W/m² | - |
| 1777507321 | 14.44° C | 62% | 1011 hPa | 0 mm | - | 0 W/m² | - |
| 1777507018 | 14.44° C | 61% | 1010.9 hPa | 0 mm | - | 1 W/m² | - |
| 1777506715 | 14.44° C | 61% | 1011.1 hPa | 0 mm | - | 1 W/m² | - |
| 1777506412 | 15° C | 62% | 1011.1 hPa | 0 mm | - | 2 W/m² | - |
| 1777506108 | 15° C | 61% | 1011.1 hPa | 0 mm | - | 3 W/m² | - |
| 1777505803 | 15° C | 60% | 1011 hPa | 0 mm | - | 5 W/m² | - |
| 1777505501 | 15° C | 59% | 1011.1 hPa | 0 mm | - | 7 W/m² | - |
| 1777505197 | 15.56° C | 59% | 1011 hPa | 0 mm | - | 11 W/m² | - |
| 1777504894 | 15.56° C | 57% | 1011.1 hPa | 0 mm | - | 16 W/m² | - |
| 1777504591 | 15.56° C | 57% | 1010.9 hPa | 0 mm | - | 22 W/m² | - |
| 1777504286 | 16.11° C | 56% | 1011 hPa | 0 mm | - | 31 W/m² | - |
| 1777503982 | 16.11° C | 57% | 1011 hPa | 0 mm | - | 39 W/m² | - |
* Rain latest hour (hover to see other rain measurements)
** Current wind speed in m/s (hover to see current wind gust speed)